Weather History for Monterey, CA

Change the Weather History Date:

Sunday, October 26, 2014

  Actual Average Record
Temperature  
Mean Temperature 59 °F 58 °F  
Max Temperature 66 °F 67 °F 88 °F (2003)
Min Temperature 51 °F 49 °F 45 °F (2008)
Degree Days  
Heating Degree Days 6    
Month to date heating degree days 69  
Since 1 July heating degree days 207  
Cooling Degree Days 0    
Month to date cooling degree days 41  
Year to date cooling degree days 139  
Growing Degree Days 9 (Base 50)    
Moisture  
Dew Point 51 °F    
Average Humidity 69    
Maximum Humidity 96    
Minimum Humidity 42    
Precipitation  
Precipitation 0.00 in - 1.40 in (1950)
Month to date precipitation 0.20  
Year to date precipitation 7.96  
Since 1 July precipitation 0.57  
Sea Level Pressure  
Sea Level Pressure 30.16 in    
Wind  
Wind Speed 5 mph (SW)    
Max Wind Speed 17 mph    
Max Gust Speed 28 mph    
Visibility 10 miles    
Events      
T = Trace of Precipitation, MM = Missing Value Source: NWS Daily Summary

Daily Weather History Graph

Daily Weather History Graph

Search for Another Location

Airport:

Trip Planner

Search our weather history database for the weather conditions in past years. The results will help you decide how hot, cold, wet, or windy it might be!

Date:

Astronomy

Oct. 26, 2014 Rise Set
Actual Time 7:25 AM PDT 6:17 PM PDT
Civil Twilight 6:58 AM PDT 6:43 PM PDT
Nautical Twilight 6:28 AM PDT 7:13 PM PDT
Astronomical Twilight 5:58 AM PDT 7:43 PM PDT
Moon 10:05 AM PDT (10/26) 8:36 PM PDT (10/26)
Length of Visible Light 11h 44m
Length of Day
10h 52m
Waxing Crescent, 9% of the Moon is Illuminated
Oct 26
Waxing Crescent
Oct 30
First Quarter
Nov 6
Full
Nov 14
Last Quarter
Nov 22
New

Hourly Weather History & Observations

Time (PDT) Temp. Dew Point Humidity Pressure Visibility Wind Dir Wind Speed Gust Speed Precip Events Conditions
12:54 AM 57.0 °F 54.0 °F 89% 30.19 in 10.0 mi Calm Calm - N/A   Overcast
1:54 AM 55.9 °F 52.0 °F 87% 30.19 in 10.0 mi East 3.5 mph - N/A   Overcast
2:07 AM 55.4 °F 51.8 °F 88% 30.16 in 10.0 mi ESE 3.5 mph - N/A   Overcast
2:16 AM 55.4 °F 51.8 °F 88% 30.16 in 10.0 mi ESE 3.5 mph - N/A   Overcast
2:54 AM 55.9 °F 52.0 °F 87% 30.19 in 10.0 mi Calm Calm - N/A   Mostly Cloudy
3:19 AM 55.4 °F 53.6 °F 94% 30.16 in 10.0 mi Calm Calm - N/A   Scattered Clouds
3:54 AM 55.0 °F 51.1 °F 86% 30.19 in 10.0 mi Calm Calm - N/A   Clear
4:54 AM 54.0 °F 51.1 °F 90% 30.19 in 10.0 mi Calm Calm - N/A   Clear
5:54 AM 53.1 °F 50.0 °F 89% 30.19 in 10.0 mi ESE 3.5 mph - N/A   Clear
6:54 AM 52.0 °F 50.0 °F 93% 30.20 in 10.0 mi ESE 3.5 mph - N/A   Clear
7:54 AM 52.0 °F 48.9 °F 89% 30.19 in 10.0 mi East 3.5 mph - N/A   Clear
8:54 AM 57.9 °F 53.1 °F 84% 30.20 in 10.0 mi Calm Calm - 0.01 in   Clear
9:54 AM 61.0 °F 52.0 °F 72% 30.21 in 10.0 mi Calm Calm - N/A   Clear
10:54 AM 64.0 °F 46.9 °F 54% 30.20 in 10.0 mi West 4.6 mph - N/A   Clear
11:54 AM 64.9 °F 46.0 °F 50% 30.19 in 10.0 mi Variable 6.9 mph - N/A   Clear
12:54 PM 66.0 °F 43.0 °F 43% 30.17 in 10.0 mi West 8.1 mph - N/A   Clear
1:54 PM 66.0 °F 46.0 °F 48% 30.16 in 10.0 mi West 9.2 mph - N/A   Clear
2:54 PM 66.0 °F 51.1 °F 59% 30.14 in 10.0 mi West 13.8 mph 19.6 mph N/A   Clear
3:54 PM 64.9 °F 48.9 °F 56% 30.13 in 10.0 mi West 16.1 mph 21.9 mph N/A   Clear
4:54 PM 64.0 °F 51.1 °F 63% 30.12 in 10.0 mi West 10.4 mph 23.0 mph N/A   Clear
5:54 PM 63.0 °F 52.0 °F 67% 30.10 in 10.0 mi WSW 12.7 mph - N/A   Clear
6:54 PM 61.0 °F 52.0 °F 72% 30.10 in 10.0 mi WSW 9.2 mph 16.1 mph N/A   Clear
7:54 PM 61.0 °F 52.0 °F 72% 30.11 in 10.0 mi West 10.4 mph 17.3 mph N/A   Clear
8:54 PM 61.0 °F 52.0 °F 72% 30.11 in 10.0 mi NW 3.5 mph - N/A   Clear
9:54 PM 60.1 °F 52.0 °F 75% 30.10 in 10.0 mi Calm Calm - N/A   Scattered Clouds
10:54 PM 55.9 °F 51.1 °F 84% 30.10 in 10.0 mi Calm Calm - N/A   Clear
11:54 PM 55.9 °F 50.0 °F 80% 30.10 in 10.0 mi SSE 5.8 mph - N/A   Clear